Content
SEND FEEDBACK

Daily
Averages
Monthly
Summary
United States of America

CHAMPAIGN, ILLINOIS


Home > North America > United States > Illinois
Elevation: 736 feet     Latitude: 40 05N     Longitude: 088 13W

WEATHER
 
SELECT A DAY
Number of Records: 199,443;   Date Range: 1/1/95 - 11/24/14
 
SHARE

PRINT THIS DATA

[ ← Previous Day ]
WEATHER ALMANAC - MAY 17, 2013
[ Next Day → ]
[ °C ]   °F
Weather ElementAverageHighLow
Temperature68.4 °F82.9 °F (3:53 pm)57.2 °F (5:40 am)
Dewpoint59 °F62.1 °F (7:53 am)54 °F (3:53 pm)
Humidity75.2 %100 % (5:40 am)37 % (3:53 pm)
Barometer29.98 in30.01 in (8:53 am)29.95 in (1:53 am)
Wind Speed7.5 mph16.1 mph (3:53 pm)
Wind Gust23 mph (3:53 pm)
Weather ElementAverage
Visibility6.7 mi
Wind DirectionSE (138.7 °)

Weather ElementTotal
Precipitation---
Cooling Degree Days5.1 (Base 65)
Growing Degree Days20.1 (Base 50)
Averaged from 30 records on May 17, 2013
WEATHER CONDITIONS BREAKOUT
WIND DIRECTION BREAKOUT
WEATHER BY HOUR - MAY 17, 2013
[ °C ]   °F
Local TimeTemperatureDewpointHumidityBarometerVisibilityWind DirectionWind SpeedGust SpeedPrecipitationEventsConditions
1:53 AM64.0 °F60.1 °F87 %29.95 in8.0 miSouth (190°)8.1 mphClear
2:53 AM63.0 °F60.1 °F90 %29.95 in7.0 miSouth (180°)5.8 mphClear
3:53 AM61.0 °F59.0 °F93 %29.96 in7.0 miSouth (170°)4.6 mphClear
4:53 AM60.1 °F57.0 °F90 %29.97 in5.0 miESE (110°)3.5 mphClear
5:40 AM57.2 °F57.2 °F100 %29.98 in2.0 miESE (110°)4.6 mphPartly Cloudy
5:42 AM57.2 °F57.2 °F100 %29.98 in0.8 miESE (110°)4.6 mphMist
5:51 AM57.2 °F57.2 °F100 %29.98 in0.2 miESE (110°)4.6 mphFogFog
5:53 AM57.9 °F57.0 °F97 %29.97 in0.2 miESE (110°)4.6 mphFogShallow Fog
6:02 AM59.0 °F57.2 °F94 %29.98 in0.2 miEast (100°)4.6 mphFogShallow Fog
6:10 AM59.0 °F57.2 °F94 %29.99 in1.0 miEast (100°)4.6 mphFogShallow Fog
6:24 AM60.8 °F59.0 °F94 %29.99 in2.5 miEast (80°)3.5 mphClear
6:46 AM62.6 °F60.8 °F94 %30.00 in3.0 miESE (120°)3.5 mphClear
6:53 AM63.0 °F61.0 °F93 %29.99 in3.0 miSE (130°)3.5 mphClear
7:53 AM69.1 °F62.1 °F78 %30.00 in5.0 miEast (100°)6.9 mphHaze
8:53 AM73.9 °F62.1 °F66 %30.01 in8.0 miVariable3.5 mphClear
9:53 AM75.9 °F62.1 °F62 %30.00 in10.0 miSSE (160°)4.6 mphPartly Cloudy
10:53 AM79.0 °F61.0 °F54 %29.99 in10.0 miSSE (150°)12.7 mphPartly Cloudy
11:53 AM79.0 °F59.0 °F50 %29.99 in10.0 miSSE (160°)10.4 mphPartly Cloudy
12:53 PM79.0 °F60.1 °F52 %29.99 in10.0 miSSE (150°)12.7 mphClear
1:53 PM79.0 °F59.0 °F50 %29.97 in10.0 miSSE (160°)13.8 mphClear
2:53 PM80.1 °F57.0 °F45 %29.96 in10.0 miSouth (190°)9.2 mph16.1 mphClear
3:53 PM82.9 °F54.0 °F37 %29.95 in10.0 miSouth (180°)16.1 mph23.0 mphPartly Cloudy
4:53 PM80.1 °F54.0 °F40 %29.95 in10.0 miSSE (160°)12.7 mphScattered Clouds
5:53 PM78.1 °F59.0 °F52 %29.95 in10.0 miSouth (180°)13.8 mphClear
6:53 PM75.0 °F61.0 °F62 %29.96 in10.0 miSouth (190°)13.8 mphMostly Cloudy
7:53 PM71.1 °F60.1 °F68 %29.98 in10.0 miSouth (170°)10.4 mphScattered Clouds
8:53 PM68.0 °F59.0 °F73 %29.99 in10.0 miSSE (160°)3.5 mphClear
9:53 PM66.9 °F60.1 °F79 %30.01 in10.0 miSSE (150°)6.9 mphClear
10:53 PM66.9 °F61.0 °F81 %30.00 in10.0 miSE (140°)6.9 mphPartly Cloudy
11:53 PM66.0 °F60.1 °F81 %30.00 in9.0 miSE (140°)8.1 mphClear
Hourly data recorded from KCMI, located miles away from Champaign, Illinois







STORIES FROM OUR PARTNERS